Location: Peebles
(55.6412°N, 3.1714°W)
Time: 05:27:37
(UTC+00:00)

USA 305 - Visible Passes

Search period start: 28 January 2022 00:00
Search period end: 07 February 2022 00:00
Orbit: 563 x 566 km, 54.0° (Epoch: 14 January)

Date Brightness Start Highest point End Pass type
(mag) Time Alt. Az. Time Alt. Az. Time Alt. Az.
28 Jan 4.7 18:23:01 10° S 18:25:31 16° SE 18:26:07 15° SE visible
28 Jan 4.9 20:00:32 10° SW 20:02:05 21° SW 20:02:05 21° SW visible
29 Jan 4.5 18:21:28 10° S 18:24:33 20° SE 18:25:41 18° ESE visible
29 Jan 4.6 19:59:37 10° SW 20:01:40 26° SW 20:01:40 26° SW visible
30 Jan 4.2 18:20:08 10° SSW 18:23:36 25° SE 18:25:12 20° ESE visible
30 Jan 4.3 19:58:44 10° WSW 20:01:09 32° SW 20:01:09 32° SW visible
31 Jan 4.0 18:18:57 10° SSW 18:22:40 31° SSE 18:24:38 21° ESE visible
31 Jan 4.1 19:57:53 10° WSW 20:00:36 37° WSW 20:00:36 37° WSW visible
01 Feb 3.7 18:17:51 10° SW 18:21:46 37° SSE 18:24:01 21° E visible
01 Feb 3.9 19:57:03 10° WSW 19:59:59 42° WSW 19:59:59 42° WSW visible
02 Feb 3.5 18:16:50 10° SW 18:20:52 44° SSE 18:23:22 21° E visible
02 Feb 3.7 19:56:13 10° W 19:59:19 47° WSW 19:59:19 47° WSW visible
03 Feb 3.3 18:15:52 10° WSW 18:19:58 52° SSE 18:22:41 20° E visible
03 Feb 3.6 19:55:23 10° W 19:58:38 50° WSW 19:58:38 50° WSW visible
04 Feb 3.1 18:14:57 10° WSW 18:19:06 59° SSE 18:21:59 19° E visible
04 Feb 3.5 19:54:33 10° W 19:57:56 53° WSW 19:57:56 53° WSW visible
05 Feb 3.1 18:14:02 10° WSW 18:18:14 65° S 18:21:16 18° E visible
05 Feb 3.4 19:53:42 10° W 19:57:13 54° WSW 19:57:13 54° WSW visible
06 Feb 3.0 18:13:09 10° WSW 18:17:22 70° S 18:20:33 17° E visible
06 Feb 3.4 19:52:51 10° W 19:56:30 54° SW 19:56:30 54° SW visible
